Showing default

MT-CUBE-2, 53106

Orbit data source: Space-Track

MT-CUBE-2, 53106 is a French payload satellite that was launched on Wed, 13 Jul 2022 UTC via a VEGA C launch vehicle from the French Guiana (FRGUI). Payload-class satellites include a variety of spacecraft equipped with specific instruments for various scientific and technological missions. These include communications satellites like Starlink; space stations such as the ISS; scientific satellites like the Hubble; Earth observation satellites from companies like Planet Labs, Umbra, and HawkEye 360; GPS; miniature CubeSats for education and research; and military/defense satellites.

Loading next visibility...
Identifier
53106, 2022-080B
Orbit
Active
Country
Flag of FRFR
Related business
Manufacturer
ENEA/UNF2
Mission
Non-operational Civil Bio/Tech
Bus & Motor
CUBESAT 3U, Unknown motor
Mass
4 kg wet, 4 kg dry
Launch date (UTC)
2022-07-13 (4 years ago)
Launch vehicle
VEGA C
Launch site
French Guiana (FRGUI)
Object type
Payload
Rocket body
Debris
Shape & HBR
Box, 0.1 m
Radar Cross Section
0.035 m², Small (<0.1 m²)

Expand to show TLE details & history
Last TLE update: 1 year ago

TLE from 1 year ago
0 MT-CUBE-2
1 53106U 22080B   25119.54530882 -.00000003  00000-0  00000+0 0  9993
2 53106  70.1441  82.5809 0008360  32.9040 327.2139  6.42557753 65597
Epoch: 2025-04-29T13:05Z
TLE epoch observation values (Epoch: 2025-04-29T13:05:14.682Z)
Latitude
Longitude
28.52629°
Altitude
5,836.233 km
Speed
5.715 km/s
True Right ascension
05h 30m 19s
True Declination
0° 00' 00"
Sunlit
Object was in daylight at epoch
Visualization orbit readout
Latitude
Unknown
Longitude
Unknown
Altitude
Unknown
Speed
Unknown
Apparent Right ascension
Unknown
Apparent Declination
Unknown
Sunlit
N/A
Visualization observer readout
Local Sidereal Time
14:34:24
Azimuth
Unknown
Elevation
Unknown
Doppler factor
Unknown
Orbital elements
Apogee altitude
5,852.48 km
Perigee altitude
5,832.048 km
Semi-major axis
12,220.401 km
Eccentricity
0.00084
Inclination
70.1441°
RAAN
82.5809°
Arg. of periapsis
32.904°
True anomaly
327.16198°
Mean anomaly
327.2139°
Eccentric anomaly
327.18794°
Mean motion
1.60663 °/min
Orbital period
224.07 mins
BSTAR
0
Loading maneuver chart data...
Computing Atmospheric mass density...
Loading historical data...
Loading historical data...
Loading historical data...
Loading historical data...
Loading historical data...
Loading historical data...
Loading historical data...

Documentation

Showing up to 5 results
|